カタログに戻る

USA 466

運用中軍事VLEO
NORAD 62535·PAYLOAD·🇺🇸 United States

打ち上げ Jan 10, 2025 から Vandenberg Space Force Base

Loading…

次のパス (今後24時間)

TLE

古いSource: Mike McCants

元期: Aug 27, 2026, 01:10 UTC

1 62535U 25005D   26239.04867314 0.00000000  00000-0  00000-0 0    01
2 62535  70.0140 223.8405 0002000 199.1802 160.8198 14.96713250    02

AllMySatでUSA 466をリアルタイム追跡

Download on the App Store